TRI1030 YCFS-YSTW

Flight info

Callsign TRI1030
Flight time 0h 41m
Altitude 16000
Route CFS W330 TW
Aircraft AT46/M-SDFGIRY/S

Departure

Time 2026-04-12 12:42
Airport Coffs Harbour Airport (YCFS)

Arrival

Time 2026-04-12 13:24
Airport Tamworth Airport (YSTW)
Time Latitude Longitude Altitude Speed Heading
2026-04-12 12:32 -30.32267 153.11675 25 ft 0 kts 340°
2026-04-12 12:36 -30.32268 153.11675 25 ft 1 kts 340°
2026-04-12 12:36 -30.32242 153.11683 23 ft 1 kts 82°
2026-04-12 12:37 -30.32271 153.11704 26 ft 8 kts 146°
2026-04-12 12:37 -30.32283 153.11717 23 ft 2 kts 128°
2026-04-12 12:37 -30.32289 153.11720 23 ft 1 kts 169°
2026-04-12 12:37 -30.32301 153.11713 25 ft 3 kts 218°
2026-04-12 12:38 -30.32325 153.11690 24 ft 5 kts 217°
2026-04-12 12:38 -30.32349 153.11678 25 ft 2 kts 195°
2026-04-12 12:38 -30.32365 153.11684 25 ft 4 kts 128°
2026-04-12 12:38 -30.32388 153.11718 23 ft 7 kts 131°
2026-04-12 12:39 -30.32423 153.11764 23 ft 9 kts 131°
2026-04-12 12:39 -30.32467 153.11822 23 ft 10 kts 130°
2026-04-12 12:39 -30.32513 153.11886 24 ft 11 kts 131°
2026-04-12 12:39 -30.32551 153.11917 24 ft 6 kts 174°
2026-04-12 12:40 -30.32582 153.11899 25 ft 0 kts 221°
2026-04-12 12:41 -30.32610 153.11870 25 ft 29 kts 222°
2026-04-12 12:42 -30.32973 153.11514 23 ft 106 kts 221°
2026-04-12 12:42 -30.34407 153.10181 939 ft 137 kts 219°
2026-04-12 12:42 -30.35177 153.09465 1506 ft 152 kts 219°
2026-04-12 12:43 -30.36012 153.08664 2170 ft 157 kts 220°
2026-04-12 12:43 -30.36828 153.07841 2857 ft 154 kts 225°
2026-04-12 12:43 -30.37163 153.06698 3356 ft 164 kts 277°
2026-04-12 12:43 -30.36684 153.05473 3912 ft 170 kts 293°
2026-04-12 12:44 -30.36121 153.04262 4469 ft 172 kts 294°
2026-04-12 12:44 -30.35531 153.03048 5026 ft 174 kts 294°
2026-04-12 12:44 -30.35025 153.01777 5584 ft 173 kts 289°
2026-04-12 12:44 -30.34653 153.00450 6151 ft 173 kts 279°
2026-04-12 12:45 -30.34688 152.99087 6651 ft 170 kts 256°
2026-04-12 12:45 -30.34941 152.97747 7174 ft 170 kts 255°
2026-04-12 12:45 -30.35235 152.96425 7680 ft 169 kts 252°
2026-04-12 12:45 -30.35549 152.95117 8209 ft 168 kts 252°
2026-04-12 12:46 -30.35863 152.93815 8716 ft 168 kts 252°
2026-04-12 12:46 -30.36173 152.92518 9245 ft 167 kts 252°
2026-04-12 12:46 -30.36488 152.91224 9735 ft 166 kts 252°
2026-04-12 12:46 -30.36797 152.89953 10190 ft 166 kts 252°
2026-04-12 12:47 -30.37111 152.88666 10614 ft 166 kts 252°
2026-04-12 12:47 -30.37417 152.87382 11044 ft 165 kts 253°
2026-04-12 12:47 -30.37721 152.86098 11465 ft 165 kts 253°
2026-04-12 12:47 -30.38017 152.84819 11891 ft 164 kts 253°
2026-04-12 12:48 -30.38312 152.83540 12290 ft 164 kts 253°
2026-04-12 12:48 -30.38611 152.82262 12684 ft 164 kts 253°
2026-04-12 12:48 -30.38907 152.80991 13083 ft 163 kts 253°
2026-04-12 12:48 -30.39192 152.79733 13464 ft 163 kts 254°
2026-04-12 12:49 -30.39479 152.78462 13892 ft 163 kts 254°
2026-04-12 12:49 -30.39768 152.77187 14262 ft 163 kts 253°
2026-04-12 12:49 -30.40062 152.75915 14572 ft 164 kts 254°
2026-04-12 12:49 -30.40357 152.74636 14860 ft 165 kts 253°
2026-04-12 12:50 -30.40654 152.73342 15171 ft 166 kts 253°
2026-04-12 12:50 -30.40958 152.72043 15504 ft 167 kts 253°
2026-04-12 12:50 -30.41270 152.70742 15840 ft 169 kts 253°
2026-04-12 12:50 -30.41589 152.69380 15954 ft 182 kts 253°
2026-04-12 12:51 -30.41934 152.67899 15990 ft 197 kts 253°
2026-04-12 12:51 -30.42301 152.66313 16018 ft 211 kts 253°
2026-04-12 12:51 -30.42692 152.64630 16026 ft 221 kts 253°
2026-04-12 12:51 -30.43097 152.62882 16027 ft 228 kts 254°
2026-04-12 12:52 -30.43512 152.61082 16029 ft 234 kts 253°
2026-04-12 12:52 -30.43930 152.59262 16020 ft 238 kts 253°
2026-04-12 12:52 -30.44358 152.57403 16020 ft 240 kts 253°
2026-04-12 12:52 -30.44792 152.55520 16046 ft 243 kts 253°
2026-04-12 12:53 -30.45229 152.53616 16047 ft 245 kts 254°
2026-04-12 12:53 -30.45669 152.51702 16031 ft 247 kts 253°
2026-04-12 12:53 -30.46113 152.49772 16029 ft 247 kts 253°
2026-04-12 12:53 -30.46555 152.47848 16038 ft 248 kts 254°
2026-04-12 12:54 -30.46997 152.45911 16040 ft 249 kts 254°
2026-04-12 12:54 -30.47439 152.43975 16031 ft 249 kts 254°
2026-04-12 12:54 -30.47882 152.42037 16022 ft 248 kts 253°
2026-04-12 12:54 -30.48325 152.40115 15964 ft 246 kts 254°
2026-04-12 12:55 -30.48614 152.38848 15996 ft 245 kts 254°
2026-04-12 12:55 -30.49054 152.36937 16022 ft 246 kts 253°
2026-04-12 12:55 -30.49526 152.35031 16034 ft 246 kts 250°
2026-04-12 12:55 -30.50193 152.33205 16039 ft 246 kts 245°
2026-04-12 12:56 -30.50933 152.31414 16058 ft 247 kts 244°
2026-04-12 12:56 -30.51680 152.29616 16059 ft 248 kts 245°
2026-04-12 12:56 -30.52401 152.27797 16048 ft 247 kts 245°
2026-04-12 12:56 -30.53094 152.25969 16053 ft 248 kts 246°
2026-04-12 12:57 -30.53794 152.24138 16054 ft 248 kts 246°
2026-04-12 12:57 -30.54493 152.22307 16059 ft 248 kts 245°
2026-04-12 12:57 -30.55190 152.20476 16068 ft 248 kts 245°
2026-04-12 12:57 -30.55889 152.18641 16060 ft 249 kts 246°
2026-04-12 12:58 -30.56590 152.16804 16064 ft 249 kts 246°
2026-04-12 12:58 -30.57283 152.14993 16071 ft 249 kts 246°
2026-04-12 12:58 -30.57983 152.13156 16067 ft 249 kts 245°
2026-04-12 12:58 -30.58680 152.11319 16062 ft 249 kts 245°
2026-04-12 12:59 -30.59379 152.09478 16073 ft 249 kts 246°
2026-04-12 12:59 -30.60079 152.07636 16068 ft 249 kts 246°
2026-04-12 12:59 -30.60782 152.05794 16071 ft 249 kts 246°
2026-04-12 12:59 -30.61479 152.03952 16076 ft 250 kts 246°
2026-04-12 13:00 -30.62182 152.02109 16070 ft 250 kts 246°
2026-04-12 13:00 -30.62881 152.00264 16087 ft 250 kts 245°
2026-04-12 13:00 -30.63584 151.98413 16078 ft 250 kts 245°
2026-04-12 13:00 -30.64283 151.96564 16065 ft 250 kts 246°
2026-04-12 13:01 -30.64983 151.94717 16072 ft 249 kts 246°
2026-04-12 13:01 -30.65680 151.92880 16099 ft 249 kts 246°
2026-04-12 13:01 -30.66380 151.91035 16090 ft 250 kts 246°
2026-04-12 13:01 -30.67069 151.89214 16074 ft 250 kts 245°
2026-04-12 13:02 -30.67767 151.87365 16083 ft 250 kts 246°
2026-04-12 13:02 -30.68465 151.85521 16077 ft 249 kts 246°
2026-04-12 13:02 -30.69158 151.83682 16081 ft 248 kts 246°
2026-04-12 13:02 -30.69854 151.81841 16086 ft 248 kts 245°
2026-04-12 13:03 -30.70546 151.80001 16084 ft 249 kts 246°
2026-04-12 13:03 -30.71240 151.78160 16079 ft 249 kts 246°
2026-04-12 13:03 -30.71935 151.76319 16093 ft 249 kts 246°
2026-04-12 13:03 -30.72632 151.74472 16091 ft 249 kts 246°
2026-04-12 13:04 -30.73327 151.72627 16087 ft 249 kts 246°
2026-04-12 13:04 -30.74024 151.70775 16086 ft 249 kts 246°
2026-04-12 13:04 -30.74719 151.68931 16083 ft 249 kts 246°
2026-04-12 13:04 -30.75413 151.67084 16108 ft 249 kts 246°
2026-04-12 13:05 -30.76098 151.65263 16116 ft 249 kts 246°
2026-04-12 13:05 -30.76790 151.63418 16120 ft 249 kts 246°
2026-04-12 13:05 -30.77482 151.61575 16121 ft 249 kts 246°
2026-04-12 13:05 -30.78175 151.59728 16120 ft 249 kts 246°
2026-04-12 13:06 -30.78869 151.57880 16131 ft 249 kts 246°
2026-04-12 13:06 -30.79564 151.56029 16128 ft 249 kts 246°
2026-04-12 13:06 -30.80258 151.54172 16127 ft 250 kts 246°
2026-04-12 13:06 -30.80944 151.52341 16125 ft 250 kts 246°
2026-04-12 13:07 -30.81640 151.50483 16127 ft 250 kts 246°
2026-04-12 13:07 -30.82332 151.48633 16133 ft 250 kts 246°
2026-04-12 13:07 -30.83023 151.46784 16130 ft 246 kts 246°
2026-04-12 13:07 -30.83686 151.44979 15914 ft 242 kts 246°
2026-04-12 13:08 -30.84338 151.43175 15624 ft 240 kts 250°
2026-04-12 13:08 -30.84474 151.41243 15340 ft 242 kts 269°
2026-04-12 13:08 -30.84378 151.39281 15061 ft 243 kts 269°
2026-04-12 13:08 -30.84332 151.37309 14780 ft 244 kts 266°
2026-04-12 13:09 -30.84391 151.35336 14498 ft 244 kts 264°
2026-04-12 13:09 -30.84513 151.33368 14226 ft 244 kts 263°
2026-04-12 13:09 -30.84646 151.31418 13945 ft 245 kts 263°
2026-04-12 13:09 -30.84782 151.29442 13640 ft 245 kts 263°
2026-04-12 13:10 -30.84898 151.27458 13337 ft 246 kts 263°
2026-04-12 13:10 -30.85009 151.25465 13022 ft 247 kts 263°
2026-04-12 13:10 -30.85118 151.23468 12711 ft 247 kts 263°
2026-04-12 13:10 -30.85226 151.21470 12413 ft 248 kts 263°
2026-04-12 13:11 -30.85335 151.19469 12114 ft 248 kts 263°
2026-04-12 13:11 -30.85442 151.17485 11832 ft 249 kts 263°
2026-04-12 13:11 -30.85549 151.15473 11542 ft 249 kts 263°
2026-04-12 13:11 -30.85658 151.13460 11241 ft 249 kts 263°
2026-04-12 13:12 -30.85766 151.11444 10967 ft 250 kts 263°
2026-04-12 13:12 -30.85872 151.09425 10672 ft 250 kts 263°
2026-04-12 13:12 -30.85979 151.07409 10390 ft 248 kts 263°
2026-04-12 13:12 -30.86082 151.05404 10124 ft 247 kts 263°
2026-04-12 13:13 -30.86188 151.03407 9804 ft 246 kts 263°
2026-04-12 13:13 -30.86294 151.01422 9483 ft 245 kts 263°
2026-04-12 13:13 -30.86396 150.99470 9193 ft 245 kts 263°
2026-04-12 13:13 -30.86501 150.97494 8863 ft 245 kts 263°
2026-04-12 13:14 -30.86604 150.95518 8561 ft 244 kts 263°
2026-04-12 13:14 -30.86706 150.93553 8254 ft 241 kts 263°
2026-04-12 13:14 -30.86807 150.91620 7966 ft 237 kts 263°
2026-04-12 13:14 -30.86907 150.89720 7669 ft 234 kts 263°
2026-04-12 13:15 -30.87005 150.87828 7372 ft 232 kts 263°
2026-04-12 13:15 -30.87097 150.85969 7067 ft 227 kts 263°
2026-04-12 13:15 -30.87191 150.84148 6784 ft 224 kts 263°
2026-04-12 13:15 -30.87282 150.82350 6494 ft 222 kts 264°
2026-04-12 13:16 -30.87375 150.80568 6185 ft 220 kts 263°
2026-04-12 13:16 -30.87467 150.78798 5875 ft 219 kts 263°
2026-04-12 13:16 -30.87559 150.77034 5568 ft 217 kts 263°
2026-04-12 13:16 -30.87646 150.75301 5261 ft 216 kts 263°
2026-04-12 13:17 -30.87913 150.73668 5241 ft 196 kts 239°
2026-04-12 13:17 -30.88834 150.72606 5234 ft 182 kts 216°
2026-04-12 13:17 -30.89882 150.71832 5241 ft 175 kts 209°
2026-04-12 13:17 -30.90957 150.71220 5226 ft 171 kts 205°
2026-04-12 13:18 -30.92058 150.70680 5049 ft 167 kts 203°
2026-04-12 13:18 -30.93063 150.70211 4864 ft 150 kts 203°
2026-04-12 13:18 -30.94931 150.69357 4670 ft 141 kts 200°
2026-04-12 13:19 -30.95891 150.69462 4470 ft 153 kts 153°
2026-04-12 13:19 -30.96657 150.70350 4279 ft 157 kts 138°
2026-04-12 13:19 -30.97381 150.71316 4081 ft 159 kts 136°
2026-04-12 13:19 -30.98102 150.72296 3878 ft 159 kts 136°
2026-04-12 13:20 -30.98828 150.73272 3677 ft 159 kts 136°
2026-04-12 13:20 -30.99541 150.74221 3478 ft 151 kts 137°
2026-04-12 13:20 -31.00229 150.75110 3299 ft 145 kts 137°
2026-04-12 13:20 -31.00900 150.75965 3163 ft 140 kts 138°
2026-04-12 13:21 -31.01555 150.76792 2996 ft 140 kts 138°
2026-04-12 13:21 -31.02228 150.77624 2803 ft 141 kts 138°
2026-04-12 13:21 -31.02911 150.78452 2575 ft 142 kts 137°
2026-04-12 13:21 -31.03601 150.79277 2379 ft 143 kts 136°
2026-04-12 13:22 -31.04280 150.80106 2177 ft 144 kts 135°
2026-04-12 13:22 -31.04966 150.80961 1988 ft 143 kts 134°
2026-04-12 13:22 -31.05602 150.81772 1777 ft 131 kts 133°
2026-04-12 13:22 -31.06162 150.82553 1568 ft 121 kts 133°
2026-04-12 13:23 -31.06714 150.83242 1422 ft 112 kts 137°
2026-04-12 13:23 -31.07238 150.83886 1308 ft 105 kts 137°
2026-04-12 13:23 -31.07714 150.84457 1302 ft 90 kts 134°
2026-04-12 13:23 -31.08083 150.84913 1314 ft 67 kts 130°
2026-04-12 13:24 -31.08317 150.85214 1324 ft 25 kts 128°
2026-04-12 13:24 -31.08406 150.85322 1329 ft 13 kts 143°
2026-04-12 13:24 -31.08466 150.85328 1331 ft 7 kts 210°
2026-04-12 13:24 -31.08487 150.85307 1330 ft 0 kts 224°
2026-04-12 13:25 -31.08517 150.85257 1329 ft 17 kts 247°
2026-04-12 13:25 -31.08471 150.85123 1325 ft 20 kts 312°
2026-04-12 13:25 -31.08385 150.85015 1320 ft 16 kts 313°
2026-04-12 13:25 -31.08358 150.84946 1319 ft 6 kts 240°
2026-04-12 13:26 -31.08374 150.84933 1319 ft 2 kts 197°
2026-04-12 13:26 -31.08387 150.84927 1319 ft 2 kts 207°
2026-04-12 13:26 -31.08400 150.84916 1320 ft 2 kts 219°
2026-04-12 13:26 -31.08408 150.84908 1320 ft 0 kts 219°